When you browse on this site, cookies collect data to enhance your experience and personalize the content and advertising you see.
Visit our Privacy Policy to learn more. By continuing to use the site, you agree to this use of cookies and data.
  • Em Portugal
  • Lista de países
  • Para 7 dias
  • Temperatura da água
  • Mapas de satélite
  • Mapa do tempo
  • Widgets de tempo
  • user-avatar
    Iniciar Sessão

    Previsão horária em Hotetovo

    Hoje, 17 Fevereiro, Domingo

    Tempo Temperatura Precipitação Vento Pressão Humidade
    00:00 -4°C° 0 mm 5 m/s 739 mmHg 91%
    01:00 -5°C° 0 mm 5 m/s 739 mmHg 89%
    02:00 -4°C° 0 mm 4 m/s 738 mmHg 86%
    03:00 -5°C° 0 mm 5 m/s 737 mmHg 84%
    04:00 -4°C° 0 mm 5 m/s 737 mmHg 82%
    05:00 -4°C° 0 mm 6 m/s 736 mmHg 80%
    06:00 -4°C° 0 mm 6 m/s 736 mmHg 81%
    07:00 -4°C° 0 mm 6 m/s 735 mmHg 82%
    08:00 -4°C° 0 mm 7 m/s 734 mmHg 83%
    09:00 -3°C° 0 mm 7 m/s 734 mmHg 86%
    10:00 -2°C° 0 mm 7 m/s 734 mmHg 89%
    11:00 -2°C° 0 mm 7 m/s 734 mmHg 92%
    12:00 -2°C° 0 mm 6 m/s 734 mmHg 92%
    13:00 -2°C° 0 mm 6 m/s 734 mmHg 92%
    14:00 -1°C° 0 mm 6 m/s 734 mmHg 92%
    15:00 -2°C° 0 mm 6 m/s 734 mmHg 88%
    16:00 -2°C° 0 mm 6 m/s 734 mmHg 85%
    17:00 -2°C° 0 mm 6 m/s 734 mmHg 81%
    18:00 -3°C° 0 mm 6 m/s 735 mmHg 81%
    19:00 -4°C° 0 mm 6 m/s 735 mmHg 80%
    20:00 -4°C° 0 mm 6 m/s 735 mmHg 80%
    21:00 -4°C° 0 mm 7 m/s 736 mmHg 79%
    22:00 -4°C° 0 mm 7 m/s 736 mmHg 78%
    23:00 -4°C° 0 mm 7 m/s 737 mmHg 78%

    Amanhã, 18 Fevereiro, Segunda-feira

    Tempo Temperatura Precipitação Vento Pressão Humidade
    00:00 -6°C° 0 mm 7 m/s 737 mmHg 79%
    01:00 -6°C° 0 mm 6 m/s 738 mmHg 79%
    02:00 -8°C° 0 mm 6 m/s 738 mmHg 80%
    03:00 -8°C° 0 mm 6 m/s 739 mmHg 81%
    04:00 -9°C° 0 mm 6 m/s 739 mmHg 83%
    05:00 -9°C° 0 mm 6 m/s 739 mmHg 84%
    06:00 -9°C° 0 mm 6 m/s 740 mmHg 83%
    07:00 -9°C° 0 mm 6 m/s 741 mmHg 83%
    08:00 -9°C° 0 mm 6 m/s 742 mmHg 82%
    09:00 -8°C° 0 mm 6 m/s 742 mmHg 81%
    10:00 -8°C° 0 mm 6 m/s 743 mmHg 80%
    11:00 -8°C° 0 mm 7 m/s 743 mmHg 78%
    12:00 -8°C° 0 mm 6 m/s 744 mmHg 78%
    13:00 -8°C° 0 mm 6 m/s 744 mmHg 79%
    14:00 -8°C° 0 mm 6 m/s 744 mmHg 79%
    15:00 -8°C° 0 mm 5 m/s 745 mmHg 80%
    16:00 -9°C° 0 mm 4 m/s 745 mmHg 82%
    17:00 -10°C° 0 mm 4 m/s 746 mmHg 83%
    18:00 -11°C° 0 mm 4 m/s 746 mmHg 84%
    19:00 -10°C° 0 mm 3 m/s 747 mmHg 85%
    20:00 -12°C° 0 mm 3 m/s 747 mmHg 86%
    21:00 -12°C° 0 mm 3 m/s 748 mmHg 87%
    22:00 -12°C° 0 mm 2 m/s 748 mmHg 88%
    23:00 -13°C° 0 mm 2 m/s 748 mmHg 89%

    Depois de amanhã, 19 Fevereiro, Terça-feira

    Tempo Temperatura Precipitação Vento Pressão Humidade
    00:00 -13°C° 0 mm 2 m/s 749 mmHg 89%
    01:00 -11°C° 0 mm 1 m/s 749 mmHg 89%
    02:00 -12°C° 0 mm 1 m/s 749 mmHg 89%
    03:00 -12°C° 0 mm 1 m/s 749 mmHg 88%
    04:00 -11°C° 0 mm 1 m/s 749 mmHg 88%
    05:00 -11°C° 0 mm 1 m/s 749 mmHg 87%
    06:00 -13°C° 0 mm 2 m/s 749 mmHg 87%
    07:00 -13°C° 0 mm 2 m/s 749 mmHg 87%
    08:00 -12°C° 0 mm 2 m/s 749 mmHg 86%
    09:00 -12°C° 0 mm 3 m/s 749 mmHg 84%
    10:00 -9°C° 0 mm 3 m/s 748 mmHg 81%
    11:00 -9°C° 0 mm 4 m/s 748 mmHg 79%
    12:00 -8°C° 0 mm 4 m/s 748 mmHg 79%
    13:00 -7°C° 0 mm 4 m/s 747 mmHg 78%
    14:00 -6°C° 0 mm 5 m/s 747 mmHg 78%
    15:00 -7°C° 0 mm 5 m/s 746 mmHg 80%
    16:00 -7°C° 0 mm 5 m/s 746 mmHg 81%
    17:00 -8°C° 0 mm 5 m/s 745 mmHg 83%
    18:00 -8°C° 0 mm 5 m/s 745 mmHg 83%
    19:00 -10°C° 0 mm 5 m/s 745 mmHg 83%
    20:00 -10°C° 0 mm 5 m/s 744 mmHg 84%
    21:00 -10°C° 0 mm 5 m/s 744 mmHg 83%
    22:00 -10°C° 0 mm 6 m/s 743 mmHg 83%
    23:00 -10°C° 0 mm 6 m/s 743 mmHg 83%

    20 Fevereiro, Quarta-feira

    Tempo Temperatura Precipitação Vento Pressão Humidade
    00:00 -10°C° 0 mm 6 m/s 742 mmHg 83%
    01:00 -10°C° 0 mm 6 m/s 742 mmHg 84%
    02:00 -10°C° 0 mm 6 m/s 741 mmHg 84%
    03:00 -10°C° 0 mm 6 m/s 740 mmHg 85%
    04:00 -10°C° 0 mm 6 m/s 740 mmHg 86%
    05:00 -9°C° 0 mm 6 m/s 739 mmHg 87%
    06:00 -9°C° 0 mm 6 m/s 738 mmHg 88%
    07:00 -8°C° 0 mm 6 m/s 738 mmHg 89%
    08:00 -8°C° 0 mm 6 m/s 738 mmHg 90%
    09:00 -6°C° 0 mm 6 m/s 737 mmHg 90%
    10:00 -5°C° 0 mm 6 m/s 737 mmHg 90%
    11:00 -4°C° 0 mm 6 m/s 737 mmHg 90%
    12:00 -4°C° 0.2 mm 6 m/s 737 mmHg 91%
    13:00 -3°C° 0.2 mm 6 m/s 736 mmHg 91%
    14:00 -3°C° 0.2 mm 6 m/s 736 mmHg 91%
    15:00 -3°C° 0 mm 6 m/s 736 mmHg 91%
    16:00 -2°C° 0 mm 6 m/s 736 mmHg 91%
    17:00 -1°C° 0 mm 5 m/s 736 mmHg 91%
    18:00 -2°C° 0 mm 6 m/s 735 mmHg 91%
    19:00 -2°C° 0 mm 6 m/s 735 mmHg 91%
    20:00 -2°C° 0 mm 6 m/s 735 mmHg 91%
    21:00 -2°C° 0.1 mm 6 m/s 734 mmHg 92%
    22:00 -2°C° 0.1 mm 6 m/s 734 mmHg 92%
    23:00 -2°C° 0.1 mm 6 m/s 734 mmHg 92%

    21 Fevereiro, Quinta-feira

    Tempo Temperatura Precipitação Vento Pressão Humidade
    00:00 -2°C° 0.3 mm 6 m/s 733 mmHg 91%
    01:00 -2°C° 0.3 mm 6 m/s 733 mmHg 91%
    02:00 -2°C° 0.3 mm 6 m/s 733 mmHg 90%
    03:00 -4°C° 0.1 mm 5 m/s 733 mmHg 88%
    04:00 -6°C° 0.1 mm 5 m/s 732 mmHg 86%
    05:00 -7°C° 0.1 mm 5 m/s 732 mmHg 84%
    06:00 -7°C° 0 mm 5 m/s 732 mmHg 85%
    07:00 -7°C° 0 mm 5 m/s 732 mmHg 86%
    08:00 -7°C° 0 mm 5 m/s 733 mmHg 87%
    09:00 -6°C° 0.1 mm 5 m/s 733 mmHg 86%
    10:00 -6°C° 0.1 mm 6 m/s 733 mmHg 84%
    11:00 -5°C° 0.1 mm 6 m/s 733 mmHg 83%
    12:00 -5°C° 0.1 mm 6 m/s 733 mmHg 83%
    13:00 -6°C° 0.1 mm 6 m/s 733 mmHg 83%
    14:00 -6°C° 0.1 mm 6 m/s 734 mmHg 82%
    15:00 -8°C° 0.1 mm 6 m/s 734 mmHg 83%
    16:00 -8°C° 0.1 mm 6 m/s 735 mmHg 84%
    17:00 -9°C° 0.1 mm 6 m/s 735 mmHg 84%
    18:00 -9°C° 0.1 mm 6 m/s 736 mmHg 84%
    19:00 -9°C° 0.1 mm 6 m/s 737 mmHg 84%
    20:00 -9°C° 0.1 mm 7 m/s 737 mmHg 84%
    21:00 -11°C° 0 mm 7 m/s 738 mmHg 84%
    22:00 -10°C° 0 mm 6 m/s 738 mmHg 84%
    23:00 -10°C° 0 mm 6 m/s 739 mmHg 84%

    22 Fevereiro, Sexta-feira

    Tempo Temperatura Precipitação Vento Pressão Humidade
    00:00 -10°C° 0 mm 6 m/s 739 mmHg 84%
    01:00 -11°C° 0 mm 6 m/s 740 mmHg 84%
    02:00 -11°C° 0 mm 6 m/s 740 mmHg 84%
    03:00 -11°C° 0 mm 6 m/s 741 mmHg 85%
    04:00 -12°C° 0 mm 6 m/s 741 mmHg 85%
    05:00 -12°C° 0 mm 6 m/s 741 mmHg 85%
    06:00 -12°C° 0.1 mm 6 m/s 742 mmHg 85%
    07:00 -14°C° 0.1 mm 6 m/s 743 mmHg 85%
    08:00 -14°C° 0.1 mm 7 m/s 743 mmHg 84%
    09:00 -14°C° 0.1 mm 7 m/s 744 mmHg 83%
    10:00 -15°C° 0.1 mm 7 m/s 744 mmHg 82%
    11:00 -15°C° 0.1 mm 7 m/s 745 mmHg 81%
    12:00 -15°C° 0.1 mm 7 m/s 745 mmHg 80%
    13:00 -14°C° 0.1 mm 7 m/s 745 mmHg 79%
    14:00 -14°C° 0.1 mm 7 m/s 746 mmHg 78%
    15:00 -14°C° 0 mm 7 m/s 747 mmHg 78%
    16:00 -14°C° 0 mm 6 m/s 747 mmHg 78%
    17:00 -15°C° 0 mm 6 m/s 748 mmHg 77%
    18:00 -15°C° 0 mm 6 m/s 749 mmHg 77%
    19:00 -16°C° 0 mm 6 m/s 749 mmHg 77%
    20:00 -16°C° 0 mm 6 m/s 750 mmHg 78%
    21:00 -17°C° 0 mm 6 m/s 751 mmHg 79%
    22:00 -17°C° 0 mm 6 m/s 751 mmHg 80%
    23:00 -18°C° 0 mm 5 m/s 752 mmHg 81%
    Mostrar mais